WJA2033 MWCR-CYYZ

Flight info

Callsign WJA2033
Flight time N/A
Altitude 35000
Route RIKEL2 RIKEL DCT IKBIX Y183 PEAKY/N0455F370 DCT DVALL DCT ORL DCT GRIEF DCT LPERD DCT SUSYQ DCT CAE DCT NOOKS DCT DRIVN DCT PERRI Q103 RICCS DCT OXMAN LINNG3
Aircraft B38M/M-SDE1FGHILORVWXY/HB1

Departure

Time N/A
Airport Owen Roberts International Airport (MWCR)

Arrival

Time 2026-05-04 02:43
Airport Toronto Pearson International Airport (CYYZ)
Time Latitude Longitude Altitude Speed Heading
2026-05-04 02:14 41.91626 -79.41188 34974 ft 440 kts
2026-05-04 02:14 41.94584 -79.40492 34993 ft 428 kts
2026-05-04 02:14 41.97489 -79.39810 34979 ft 420 kts
2026-05-04 02:15 42.00263 -79.39158 34736 ft 412 kts
2026-05-04 02:15 42.03168 -79.38474 34079 ft 415 kts
2026-05-04 02:15 42.06027 -79.37800 33260 ft 419 kts
2026-05-04 02:15 42.08896 -79.37123 32620 ft 415 kts
2026-05-04 02:16 42.11709 -79.36576 32178 ft 400 kts 357°
2026-05-04 02:16 42.14464 -79.36463 31797 ft 389 kts 357°
2026-05-04 02:16 42.17096 -79.36279 31426 ft 379 kts 357°
2026-05-04 02:16 42.19715 -79.36079 31010 ft 372 kts 357°
2026-05-04 02:17 42.22283 -79.35871 30571 ft 365 kts 357°
2026-05-04 02:17 42.24796 -79.35663 30158 ft 358 kts 357°
2026-05-04 02:17 42.27266 -79.35455 29714 ft 352 kts 357°
2026-05-04 02:17 42.29706 -79.35250 29279 ft 354 kts 357°
2026-05-04 02:18 42.32159 -79.35043 28892 ft 359 kts 358°
2026-05-04 02:18 42.34670 -79.34831 28491 ft 360 kts 358°
2026-05-04 02:18 42.37147 -79.34621 28103 ft 359 kts 358°
2026-05-04 02:18 42.39641 -79.34410 27723 ft 357 kts 358°
2026-05-04 02:19 42.42123 -79.34199 27338 ft 355 kts 358°
2026-05-04 02:19 42.44584 -79.33991 26959 ft 353 kts 358°
2026-05-04 02:19 42.47030 -79.33783 26591 ft 351 kts 358°
2026-05-04 02:19 42.49461 -79.33576 26225 ft 349 kts 358°
2026-05-04 02:20 42.51881 -79.33370 25857 ft 347 kts 358°
2026-05-04 02:20 42.54286 -79.33167 25517 ft 346 kts 358°
2026-05-04 02:20 42.56680 -79.32962 25145 ft 343 kts 358°
2026-05-04 02:20 42.59055 -79.32760 24789 ft 341 kts 358°
2026-05-04 02:21 42.61388 -79.32561 24442 ft 338 kts 358°
2026-05-04 02:21 42.63737 -79.32369 24057 ft 337 kts 357°
2026-05-04 02:21 42.66078 -79.32179 23693 ft 335 kts 357°
2026-05-04 02:21 42.68394 -79.31991 23340 ft 332 kts 357°
2026-05-04 02:22 42.70695 -79.31804 22952 ft 329 kts 357°
2026-05-04 02:22 42.72967 -79.31619 22618 ft 325 kts 357°
2026-05-04 02:22 42.75192 -79.31438 22281 ft 322 kts 357°
2026-05-04 02:22 42.77415 -79.31257 21943 ft 318 kts 357°
2026-05-04 02:23 42.79608 -79.31078 21617 ft 314 kts 357°
2026-05-04 02:23 42.81782 -79.30900 21297 ft 311 kts 357°
2026-05-04 02:23 42.83938 -79.30860 20936 ft 308 kts 348°
2026-05-04 02:23 42.86087 -79.31144 20589 ft 312 kts 349°
2026-05-04 02:24 42.88269 -79.31389 20282 ft 315 kts 349°
2026-05-04 02:24 42.90458 -79.31617 19967 ft 315 kts 350°
2026-05-04 02:24 42.92636 -79.31836 19651 ft 314 kts 350°
2026-05-04 02:24 42.94811 -79.32051 19335 ft 313 kts 350°
2026-05-04 02:25 42.96959 -79.32260 19010 ft 312 kts 350°
2026-05-04 02:25 42.99128 -79.32470 18696 ft 311 kts 350°
2026-05-04 02:25 43.01282 -79.32678 18366 ft 309 kts 350°
2026-05-04 02:25 43.03418 -79.32883 18033 ft 306 kts 350°
2026-05-04 02:26 43.05537 -79.33087 17678 ft 303 kts 350°
2026-05-04 02:26 43.07630 -79.33289 17364 ft 300 kts 350°
2026-05-04 02:26 43.09699 -79.33488 17060 ft 296 kts 350°
2026-05-04 02:26 43.11720 -79.33682 16765 ft 293 kts 350°
2026-05-04 02:27 43.13745 -79.33877 16505 ft 292 kts 350°
2026-05-04 02:27 43.15808 -79.34076 16237 ft 299 kts 350°
2026-05-04 02:27 43.17902 -79.34278 15948 ft 302 kts 350°
2026-05-04 02:27 43.20007 -79.34481 15655 ft 302 kts 350°
2026-05-04 02:28 43.22072 -79.34681 15357 ft 300 kts 350°
2026-05-04 02:28 43.24147 -79.34881 15057 ft 297 kts 350°
2026-05-04 02:28 43.26204 -79.35080 14749 ft 294 kts 350°
2026-05-04 02:28 43.28234 -79.35276 14447 ft 291 kts 350°
2026-05-04 02:29 43.30225 -79.35603 14117 ft 283 kts 338°
2026-05-04 02:29 43.32010 -79.36654 13821 ft 276 kts 330°
2026-05-04 02:29 43.33729 -79.37728 13555 ft 273 kts 330°
2026-05-04 02:29 43.35456 -79.38819 13166 ft 275 kts 330°
2026-05-04 02:30 43.37218 -79.39940 12633 ft 283 kts 330°
2026-05-04 02:30 43.39027 -79.41098 12109 ft 288 kts 330°
2026-05-04 02:30 43.40849 -79.42266 11646 ft 290 kts 330°
2026-05-04 02:30 43.42683 -79.43445 11165 ft 292 kts 330°
2026-05-04 02:31 43.44505 -79.44617 10672 ft 288 kts 330°
2026-05-04 02:31 43.46300 -79.45773 10186 ft 282 kts 329°
2026-05-04 02:31 43.48052 -79.46902 9717 ft 276 kts 329°
2026-05-04 02:31 43.49756 -79.48001 9204 ft 271 kts 329°
2026-05-04 02:32 43.51451 -79.49095 8714 ft 265 kts 329°
2026-05-04 02:32 43.53105 -79.50164 8260 ft 260 kts 328°
2026-05-04 02:32 43.54718 -79.51201 7969 ft 250 kts 328°
2026-05-04 02:32 43.56295 -79.52213 7485 ft 252 kts 327°
2026-05-04 02:33 43.57880 -79.53219 7221 ft 250 kts 330°
2026-05-04 02:33 43.59650 -79.53523 6876 ft 271 kts
2026-05-04 02:33 43.61372 -79.52327 6522 ft 290 kts 39°
2026-05-04 02:33 43.62686 -79.50231 6164 ft 291 kts 44°
2026-05-04 02:34 43.64009 -79.48183 5861 ft 280 kts 43°
2026-05-04 02:34 43.65302 -79.46236 5607 ft 269 kts 42°
2026-05-04 02:34 43.66553 -79.44374 5374 ft 258 kts 41°
2026-05-04 02:34 43.67757 -79.42596 5143 ft 248 kts 40°
2026-05-04 02:35 43.68899 -79.40919 4930 ft 238 kts 40°
2026-05-04 02:35 43.70061 -79.39220 4513 ft 245 kts 40°
2026-05-04 02:35 43.71244 -79.37490 3952 ft 254 kts 40°
2026-05-04 02:35 43.72497 -79.35760 3451 ft 253 kts 30°
2026-05-04 02:36 43.74012 -79.34703 3077 ft 235 kts
2026-05-04 02:36 43.75529 -79.34625 3001 ft 200 kts 338°
2026-05-04 02:36 43.76692 -79.35328 3003 ft 169 kts 315°
2026-05-04 02:36 43.77621 -79.36236 2983 ft 162 kts 313°
2026-05-04 02:37 43.78513 -79.37143 2971 ft 160 kts 313°
2026-05-04 02:37 43.79406 -79.38058 2965 ft 157 kts 307°
2026-05-04 02:37 43.79906 -79.39261 2915 ft 140 kts 274°
2026-05-04 02:37 43.79868 -79.40588 2942 ft 139 kts 251°
2026-05-04 02:38 43.79376 -79.41750 3000 ft 142 kts 240°
2026-05-04 02:38 43.78804 -79.42873 3033 ft 143 kts 238°
2026-05-04 02:38 43.78186 -79.43953 3001 ft 143 kts 236°
2026-05-04 02:38 43.77543 -79.44995 2991 ft 142 kts 234°
2026-05-04 02:39 43.76879 -79.46024 2988 ft 143 kts 233°
2026-05-04 02:39 43.76205 -79.47040 2987 ft 143 kts 233°
2026-05-04 02:39 43.75530 -79.48041 2845 ft 139 kts 232°
2026-05-04 02:39 43.74882 -79.48995 2691 ft 134 kts 232°
2026-05-04 02:40 43.74254 -79.49917 2539 ft 132 kts 232°
2026-05-04 02:40 43.73623 -79.50840 2381 ft 131 kts 232°
2026-05-04 02:40 43.73005 -79.51741 2203 ft 129 kts 231°
2026-05-04 02:40 43.72394 -79.52632 2027 ft 129 kts 231°
2026-05-04 02:41 43.71780 -79.53527 1852 ft 125 kts 231°
2026-05-04 02:41 43.71185 -79.54395 1676 ft 123 kts 231°
2026-05-04 02:41 43.70592 -79.55258 1508 ft 125 kts 230°
2026-05-04 02:41 43.69977 -79.56156 1322 ft 132 kts 229°
2026-05-04 02:42 43.69338 -79.57087 1137 ft 139 kts 227°
2026-05-04 02:42 43.68656 -79.58078 964 ft 143 kts 227°
2026-05-04 02:42 43.67962 -79.59097 738 ft 147 kts 226°
2026-05-04 02:42 43.67258 -79.60115 576 ft 141 kts 226°
2026-05-04 02:43 43.66646 -79.61008 568 ft 111 kts 226°
2026-05-04 02:43 43.66270 -79.61551 565 ft 46 kts 226°
2026-05-04 02:43 43.66079 -79.61834 567 ft 36 kts 231°
2026-05-04 02:43 43.66004 -79.62032 564 ft 15 kts 251°
2026-05-04 02:44 43.65991 -79.62188 566 ft 18 kts 296°
2026-05-04 02:44 43.66077 -79.62308 570 ft 17 kts 316°
2026-05-04 02:44 43.66173 -79.62433 568 ft 21 kts 316°
2026-05-04 02:44 43.66282 -79.62490 562 ft 17 kts 30°
2026-05-04 02:45 43.66374 -79.62379 563 ft 17 kts 43°
2026-05-04 02:45 43.66465 -79.62264 569 ft 18 kts 42°
2026-05-04 02:45 43.66562 -79.62142 570 ft 19 kts 42°
2026-05-04 02:45 43.66662 -79.62016 574 ft 18 kts 42°
2026-05-04 02:46 43.66749 -79.61906 570 ft 18 kts 42°
2026-05-04 02:46 43.66845 -79.61785 570 ft 19 kts 42°
2026-05-04 02:46 43.66948 -79.61655 569 ft 20 kts 42°
2026-05-04 02:46 43.67057 -79.61519 575 ft 21 kts 42°
2026-05-04 02:47 43.67169 -79.61375 572 ft 21 kts 44°
2026-05-04 02:47 43.67249 -79.61258 567 ft 15 kts 19°
2026-05-04 02:47 43.67327 -79.61324 568 ft 14 kts 315°
2026-05-04 02:47 43.67401 -79.61422 568 ft 16 kts 316°
2026-05-04 02:48 43.67483 -79.61530 567 ft 17 kts 316°
2026-05-04 02:48 43.67575 -79.61650 565 ft 19 kts 317°
2026-05-04 02:48 43.67676 -79.61781 568 ft 21 kts 317°
2026-05-04 02:48 43.67786 -79.61925 565 ft 23 kts 316°
2026-05-04 02:49 43.67899 -79.62056 571 ft 17 kts 332°
2026-05-04 02:49 43.68004 -79.62141 570 ft 19 kts 318°
2026-05-04 02:49 43.68102 -79.62271 564 ft 20 kts 315°
2026-05-04 02:49 43.68191 -79.62386 570 ft 15 kts 318°
2026-05-04 02:50 43.68257 -79.62424 567 ft 10 kts 19°
2026-05-04 02:50 43.68324 -79.62395 569 ft 11 kts 343°
2026-05-04 02:50 43.68384 -79.62439 566 ft 9 kts 348°
2026-05-04 02:50 43.68432 -79.62424 570 ft 5 kts 20°
2026-05-04 02:51 43.68440 -79.62419 567 ft 0 kts 20°